This is the latest recevied weather packets stored in our database for station/object dl1wer-13. If no packets are shown the sender has not sent any weather packets the latest 10 day(s).
| Time | Temp. | Humidity | Pressure | Rain* | Wind** | Luminosity | Snow |
|---|---|---|---|---|---|---|---|
| 1777727419 | 23.89° C | 23% | 1045.6 hPa | 0 mm | - | - | - |
| 1777726819 | 24.44° C | 23% | 1045.9 hPa | 0 mm | - | - | - |
| 1777726219 | 24.44° C | 22% | 1046 hPa | 0 mm | - | - | - |
| 1777725619 | 24.44° C | 23% | 1046.1 hPa | 0 mm | - | - | - |
| 1777725020 | 24.44° C | 24% | 1046.2 hPa | 0 mm | - | - | - |
| 1777724418 | 24.44° C | 27% | 1046.4 hPa | 0 mm | - | - | - |
| 1777723819 | 23.89° C | 26% | 1046.4 hPa | 0 mm | - | - | - |
| 1777723218 | 23.33° C | 25% | 1046.5 hPa | 0 mm | - | - | - |
| 1777722619 | 23.89° C | 26% | 1046.8 hPa | 0 mm | - | - | - |
| 1777722018 | 23.33° C | 28% | 1046.8 hPa | 0 mm | - | - | - |
| 1777721419 | 22.78° C | 29% | 1047.1 hPa | 0 mm | - | - | - |
| 1777720818 | 22.78° C | 30% | 1047.2 hPa | 0 mm | - | - | - |
| 1777720219 | 23.33° C | 28% | 1046.9 hPa | 0 mm | - | - | - |
| 1777719620 | 22.78° C | 30% | 1047.3 hPa | 0 mm | - | - | - |
| 1777719019 | 23.33° C | 27% | 1047.5 hPa | 0 mm | - | - | - |
| 1777718419 | 23.33° C | 28% | 1047.4 hPa | 0 mm | - | - | - |
| 1777717819 | 22.78° C | 28% | 1047.5 hPa | 0 mm | - | - | - |
| 1777717218 | 22.78° C | 26% | 1047.9 hPa | 0 mm | - | - | - |
| 1777716619 | 23.33° C | 30% | 1047.7 hPa | 0 mm | - | - | - |
| 1777716018 | 22.22° C | 32% | 1047.9 hPa | 0 mm | - | - | - |
| 1777715419 | 22.22° C | 32% | 1047.9 hPa | 0 mm | - | - | - |
| 1777714818 | 21.67° C | 34% | 1047.8 hPa | 0 mm | - | - | - |
| 1777714219 | 21.67° C | 34% | 1048 hPa | 0 mm | - | - | - |
| 1777713618 | 21.11° C | 36% | 1048.2 hPa | 0 mm | - | - | - |
| 1777713019 | 20.56° C | 35% | 1048 hPa | 0 mm | - | - | - |
* Rain latest hour (hover to see other rain measurements)
** Current wind speed in m/s (hover to see current wind gust speed)